Location: Newport
(44.6370°N, 124.0520°W)
Time: 14:17:49
(UTC-08:00)

Vanguard 2 - All Passes

Search period start: 18 February 2018 00:00
Search period end: 28 February 2018 00:00
Orbit: 553 x 2939 km, 32.9° (Epoch: 18 February)

Date Brightness Start Highest point End Pass type
(mag) Time Alt. Az. Time Alt. Az. Time Alt. Az.
18 Feb - 16:17:59 10° S 16:23:58 15° SSE 16:28:45 10° SE daylight
18 Feb - 18:25:21 10° SW 18:32:54 26° S 18:38:05 10° ESE visible
18 Feb - 20:35:22 10° WSW 20:41:00 26° S 20:45:05 10° SE visible
18 Feb - 22:46:43 10° SW 22:48:17 11° SSW 22:49:44 10° S night (unlit)
19 Feb - 16:33:57 10° SSW 16:41:57 21° SSE 16:47:51 10° ESE daylight
19 Feb - 18:42:51 10° SW 18:50:49 30° S 18:56:09 10° ESE visible
19 Feb - 20:53:24 10° WSW 20:58:48 24° SSW 21:02:46 10° SE visible
20 Feb - 14:46:02 10° S 14:50:28 12° SSE 14:54:22 10° SE daylight
20 Feb - 16:50:39 10° SSW 16:59:55 26° SSE 17:06:24 10° ESE daylight
20 Feb - 19:00:34 10° WSW 19:08:44 32° S 19:14:07 10° ESE visible
20 Feb - 21:11:34 10° WSW 21:16:32 22° SSW 21:20:17 10° SSE visible
21 Feb - 15:00:23 10° S 15:08:25 17° SSE 15:14:49 10° ESE daylight
21 Feb - 17:07:46 10° SW 17:17:54 30° SSE 17:24:40 10° ESE daylight
21 Feb - 19:18:26 10° WSW 19:26:37 33° S 19:31:58 10° ESE visible
21 Feb - 21:29:55 10° WSW 21:34:12 18° SSW 21:37:34 10° SSE visible
22 Feb - 15:16:14 10° SSW 15:26:22 23° SSE 15:33:55 10° ESE daylight
22 Feb - 17:25:12 10° SW 17:35:51 35° S 17:42:45 10° ESE daylight
22 Feb - 19:36:26 10° WSW 19:44:27 32° SSW 19:49:43 10° SE visible
22 Feb - 21:48:39 10° WSW 21:51:47 14° SSW 21:54:25 10° S visible
23 Feb - 13:28:53 10° SSE 13:34:27 13° SE 13:39:26 10° SE daylight
23 Feb - 15:32:47 10° SSW 15:44:19 28° SSE 15:52:31 10° ESE daylight
23 Feb - 17:42:52 10° WSW 17:53:48 38° S 18:00:44 10° ESE daylight
23 Feb - 19:54:32 10° WSW 20:02:13 30° SSW 20:07:21 10° SE visible
24 Feb - 13:42:58 10° S 13:52:19 18° SSE 14:00:05 10° ESE daylight
24 Feb - 15:49:47 10° SW 16:02:17 34° SSE 16:10:50 10° ESE daylight
24 Feb - 18:00:43 10° WSW 18:11:43 40° S 18:18:38 10° ESE daylight
24 Feb - 20:12:46 10° WSW 20:19:55 27° SSW 20:24:51 10° SSE visible
25 Feb - 13:58:35 10° SSW 14:10:11 24° SSE 14:19:20 10° ESE daylight
25 Feb - 16:07:07 10° SW 16:20:14 38° S 16:28:58 10° ESE daylight
25 Feb - 18:18:41 10° WSW 18:29:35 40° S 18:36:27 10° ESE visible
25 Feb - 20:31:09 10° WSW 20:37:32 22° SSW 20:42:07 10° SSE visible
26 Feb - 12:12:54 10° SSE 12:18:04 12° SE 12:22:54 10° ESE daylight
26 Feb - 14:14:56 10° SSW 14:28:05 29° SSE 14:38:03 10° ESE daylight
26 Feb - 16:24:42 10° WSW 16:38:12 42° S 16:46:59 10° ESE daylight
26 Feb - 18:36:45 10° WSW 18:47:26 39° SSW 18:54:10 10° SE visible
26 Feb - 20:49:49 10° WSW 20:55:02 18° SW 20:59:02 10° S visible
27 Feb - 12:26:11 10° S 12:35:47 17° SE 12:44:19 10° ESE daylight
27 Feb - 14:31:47 10° SW 14:46:00 35° SSE 14:56:27 10° E daylight
27 Feb - 16:42:28 10° WSW 16:56:09 45° S 17:04:56 10° ESE daylight
27 Feb - 18:54:55 10° W 19:05:11 35° SSW 19:11:46 10° SE visible
27 Feb - 21:09:06 10° WSW 21:12:27 13° SW 21:15:17 10° SSW visible
